Location: Unspecified
(0.0000°N, 0.0000°E)
Time: 00:03:56
(UTC+00:00)

deb Explorer IX - Pass Details

Date: 14 December 2018
Orbit: 538 x 1115 km, 38.8° (Epoch: 17 January)

Event Time Altitude Azimuth Distance (km) Brightness Sun altitude
Rises 05:19:05 0° 264° (W) 3,565 - -8.1°
Exits shadow 05:20:08 - 259° (WSW) 3,326 ? -7.9°
Reaches altitude 10° 05:23:41 10° 234° (SW) 2,760 ? -7.1°
Maximum altitude 05:26:01 12° 213° (SSW) 2,681 ? -6.5°
Drops below altitude 10° 05:28:26 10° 193° (SSW) 2,872 ? -6.0°
Sets 05:33:33 0° 164° (SSE) 3,909 ? -4.8°
